Location: ?????????
(41.2286°N, 23.0068°E)
Time: 08:54:22
(UTC+00:00)

Aureole 3 Rocket - Pass Details

Date: 08 November 2025
Orbit: 397 x 1691 km, 82.5° (Epoch: 04 December)

Event Time Altitude Azimuth Distance (km) Brightness Sun altitude
Rises 04:19:34 0° 355° (N) 2,808 6.2 -9.4°
Reaches altitude 10° 04:21:29 10° 357° (N) 2,035 5.5 -9.1°
Maximum altitude 04:25:59 71° 82° (E) 837 3.9 -8.3°
Drops below altitude 10° 04:32:16 10° 167° (SSE) 2,818 6.8 -7.1°
Sets 04:35:18 0° 169° (S) 3,987 7.6 -6.6°
